Voltar ao catálogo

FENGYUN 1C DEB *

LostSSO
NORAD 47033·DEBRIS·🇨🇳 China

Lançado May 10, 1999 de Taiyuan Satellite Launch Center

Loading…

Próximas Passagens (próximas 24 horas)

TLE

ObsoletoSource: Space-Track

Época: Sep 16, 2022, 01:10 UTC

1 47033U 99025FBK 22259.04865802  .00001179  00000-0  86408-3 0  9992
2 47033  98.8539   5.7738 0117131  14.3056 163.6429 13.94540725316274

Acompanhe FENGYUN 1C DEB * em tempo real com AllMySat

Download on the App Store